Windom, MN

5:00 AM CDT on April 30, 2017 (GMT -0500)
Windom Municipal

Weather History for KMWM - June, 2012

Change the Weather History Date:

Sunday, June 3, 2012

  Actual Average Record
Temperature  
Mean Temperature 68 °F -  
Max Temperature 84 °F 78 °F 96 °F (1968)
Min Temperature 51 °F 51 °F 34 °F (1969)
Cooling Degree Days 2    
Growing Degree Days 18 (Base 50)    
Moisture  
Dew Point 55 °F    
Average Humidity 64    
Maximum Humidity 94    
Minimum Humidity 44    
Precipitation  
Precipitation 0.00 in - - ()
Sea Level Pressure  
Sea Level Pressure 29.78 in    
Wind  
Wind Speed 6 mph (SE)    
Max Wind Speed 17 mph    
Max Gust Speed 23 mph    
Visibility 10 miles    
Events Rain , Thunderstorm    
Averages and records for this station are not official NWS values.
T = Trace of Precipitation, MM = Missing Value Source: NWS Daily Summary

Daily Weather History Graph

Daily Weather History Graph

Search for Another Location

Airport or City:

Trip Planner

Search our weather history database for the weather conditions in past years. The results will help you decide how hot, cold, wet, or windy it might be!

Date:

Astronomy

Jun. 03, 2012 Rise Set
Actual Time 5:39 AM CDT 8:58 PM CDT
Civil Twilight 5:04 AM CDT 9:33 PM CDT
Nautical Twilight 4:18 AM CDT 10:19 PM CDT
Astronomical Twilight 3:21 AM CDT 11:17 PM CDT
Moon 8:24 PM CDT (6/3) 4:50 AM CDT (6/3)
Length of Visible Light 16h 29m
Length of Day
15h 18m
Waxing Gibbous, 99% of the Moon is Illuminated
Jun 3
Waxing Gibbous
Jun 4
Full
Jun 11
Last Quarter
Jun 19
New
Jun 26
First Quarter

Hourly Weather History & Observations

Time (CDT) Temp. Heat Index Dew Point Humidity Pressure Visibility Wind Dir Wind Speed Gust Speed Precip Events Conditions
12:12 AM 59.0 °F - 51.8 °F 77% 29.84 in 10.0 mi South 4.6 mph - N/A   Clear
12:33 AM 59.0 °F - 51.8 °F 77% 29.83 in 10.0 mi South 5.8 mph - N/A   Clear
12:52 AM 59.0 °F - 51.8 °F 77% 29.83 in 10.0 mi South 4.6 mph - N/A   Clear
1:12 AM 57.2 °F - 51.8 °F 82% 29.83 in 10.0 mi South 5.8 mph - N/A   Clear
1:33 AM 57.2 °F - 51.8 °F 82% 29.84 in 10.0 mi South 5.8 mph - N/A   Clear
1:52 AM 57.2 °F - 50.0 °F 77% 29.84 in 10.0 mi South 4.6 mph - N/A   Clear
2:12 AM 55.4 °F - 50.0 °F 82% 29.83 in 10.0 mi Calm Calm - N/A   Clear
2:32 AM 57.2 °F - 50.0 °F 77% 29.81 in 10.0 mi South 3.5 mph - N/A   Clear
2:52 AM 55.4 °F - 50.0 °F 82% 29.82 in 10.0 mi South 3.5 mph - N/A   Clear
3:13 AM 55.4 °F - 50.0 °F 82% 29.81 in 10.0 mi South 3.5 mph - N/A   Clear
3:32 AM 57.2 °F - 50.0 °F 77% 29.80 in 10.0 mi South 4.6 mph - N/A   Clear
3:53 AM 53.6 °F - 48.2 °F 82% 29.79 in 10.0 mi Calm Calm - N/A   Clear
4:12 AM 51.8 °F - 48.2 °F 88% 29.80 in 10.0 mi Calm Calm - N/A   Clear
4:32 AM 53.6 °F - 48.2 °F 82% 29.81 in 10.0 mi South 3.5 mph - N/A   Clear
4:53 AM 53.6 °F - 48.2 °F 82% 29.80 in 10.0 mi Calm Calm - N/A   Clear
5:12 AM 51.8 °F - 50.0 °F 94% 29.80 in 10.0 mi Calm Calm - N/A   Clear
5:32 AM 51.8 °F - 48.2 °F 88% 29.82 in 10.0 mi Calm Calm - N/A   Clear
5:53 AM 53.6 °F - 48.2 °F 82% 29.82 in 10.0 mi South 3.5 mph - N/A   Scattered Clouds
6:12 AM 55.4 °F - 50.0 °F 82% 29.82 in 10.0 mi South 4.6 mph - N/A   Scattered Clouds
6:32 AM 57.2 °F - 51.8 °F 82% 29.82 in 10.0 mi South 5.8 mph - N/A   Mostly Cloudy
6:52 AM 59.0 °F - 51.8 °F 77% 29.82 in 10.0 mi South 4.6 mph - N/A   Mostly Cloudy
7:12 AM 59.0 °F - 51.8 °F 77% 29.82 in 10.0 mi South 4.6 mph - N/A   Mostly Cloudy
7:33 AM 60.8 °F - 51.8 °F 72% 29.82 in 10.0 mi Calm Calm - N/A   Mostly Cloudy
7:52 AM 60.8 °F - 53.6 °F 77% 29.83 in 10.0 mi South 4.6 mph - N/A   Mostly Cloudy
8:12 AM 60.8 °F - 53.6 °F 77% 29.85 in 10.0 mi West 3.5 mph - N/A   Overcast
8:33 AM 60.8 °F - 53.6 °F 77% 29.85 in 10.0 mi Calm Calm - N/A Rain Light Rain
8:52 AM 62.6 °F - 53.6 °F 72% 29.84 in 10.0 mi Calm Calm - N/A   Mostly Cloudy
9:12 AM 60.8 °F - 53.6 °F 77% 29.84 in 10.0 mi South 4.6 mph - N/A Rain Light Rain
9:33 AM 62.6 °F - 55.4 °F 77% 29.83 in 10.0 mi SE 3.5 mph - N/A   Mostly Cloudy
9:52 AM 64.4 °F - 55.4 °F 73% 29.82 in 10.0 mi Calm Calm - N/A   Scattered Clouds
10:12 AM 66.2 °F - 55.4 °F 68% 29.82 in 10.0 mi ESE 4.6 mph - N/A   Clear
10:33 AM 66.2 °F - 55.4 °F 68% 29.81 in 10.0 mi SE 8.1 mph - N/A   Clear
10:52 AM 69.8 °F - 55.4 °F 60% 29.81 in 10.0 mi SE 9.2 mph - N/A   Clear
11:12 AM 69.8 °F - 53.6 °F 56% 29.80 in 10.0 mi SE 9.2 mph - N/A   Clear
11:33 AM 73.4 °F - 55.4 °F 53% 29.79 in 10.0 mi SE 10.4 mph - N/A   Clear
11:52 AM 75.2 °F - 53.6 °F 47% 29.78 in 10.0 mi SE 13.8 mph 18.4 mph N/A Thunderstorm Clear
12:12 PM 73.4 °F - 53.6 °F 50% 29.78 in 10.0 mi SE 12.7 mph 19.6 mph N/A   Clear
12:33 PM 75.2 °F - 53.6 °F 47% 29.76 in 10.0 mi SE 13.8 mph 23.0 mph N/A   Clear
12:52 PM 77.0 °F - 53.6 °F 44% 29.77 in 10.0 mi SE 15.0 mph - N/A   Clear
1:12 PM 77.0 °F - 53.6 °F 44% 29.77 in 10.0 mi SE 13.8 mph 21.9 mph N/A   Clear
1:33 PM 77.0 °F - 55.4 °F 47% 29.76 in 10.0 mi SE 13.8 mph 20.7 mph N/A   Clear
1:52 PM 78.8 °F - 57.2 °F 47% 29.76 in 10.0 mi SSE 15.0 mph 18.4 mph N/A   Clear
2:12 PM 78.8 °F - 57.2 °F 47% 29.76 in 10.0 mi SE 11.5 mph 19.6 mph N/A   Clear
2:33 PM 80.6 °F 80.8 °F 57.2 °F 45% 29.75 in 10.0 mi SE 13.8 mph - N/A   Clear
2:52 PM 80.6 °F 81.1 °F 59.0 °F 48% 29.74 in 10.0 mi SE 13.8 mph 19.6 mph N/A   Clear
3:12 PM 80.6 °F 81.1 °F 59.0 °F 48% 29.73 in 10.0 mi ESE 17.3 mph 23.0 mph N/A   Clear
3:33 PM 80.6 °F 81.1 °F 59.0 °F 48% 29.72 in 10.0 mi ESE 15.0 mph - N/A   Clear
3:52 PM 82.4 °F 82.9 °F 60.8 °F 48% 29.72 in 10.0 mi ESE 13.8 mph - N/A   Scattered Clouds
4:12 PM 82.4 °F 82.9 °F 60.8 °F 48% 29.71 in 10.0 mi ESE 9.2 mph - N/A   Scattered Clouds
4:33 PM 84.2 °F 85.0 °F 62.6 °F 48% 29.71 in 10.0 mi Calm Calm - N/A   Scattered Clouds
4:52 PM 84.2 °F 84.4 °F 60.8 °F 45% 29.70 in 10.0 mi SSW 6.9 mph - N/A   Scattered Clouds
5:12 PM 84.2 °F 84.4 °F 60.8 °F 45% 29.70 in 10.0 mi SSW 8.1 mph - N/A   Scattered Clouds
5:32 PM 84.2 °F 84.4 °F 60.8 °F 45% 29.70 in 10.0 mi SW 5.8 mph - N/A   Scattered Clouds
5:52 PM 84.2 °F 84.4 °F 60.8 °F 45% 29.71 in 10.0 mi NW 6.9 mph - N/A   Scattered Clouds
6:13 PM 78.8 °F - 60.8 °F 54% 29.71 in 10.0 mi NE 12.7 mph 17.3 mph N/A   Mostly Cloudy
6:32 PM 78.8 °F - 60.8 °F 54% 29.72 in 10.0 mi ENE 13.8 mph - N/A   Mostly Cloudy
6:52 PM 78.8 °F - 60.8 °F 54% 29.72 in 10.0 mi ENE 13.8 mph 18.4 mph N/A   Scattered Clouds
7:13 PM 78.8 °F - 59.0 °F 51% 29.72 in 10.0 mi ENE 15.0 mph 21.9 mph N/A   Clear
7:32 PM 78.8 °F - 57.2 °F 47% 29.73 in 10.0 mi NE 8.1 mph 11.5 mph N/A   Clear
7:52 PM 77.0 °F - 57.2 °F 50% 29.73 in 10.0 mi ENE 12.7 mph - N/A   Clear
8:13 PM 75.2 °F - 57.2 °F 53% 29.73 in 10.0 mi NE 6.9 mph - N/A   Clear
8:33 PM 73.4 °F - 55.4 °F 53% 29.75 in 10.0 mi ENE 13.8 mph 21.9 mph N/A   Clear
8:52 PM 71.6 °F - 55.4 °F 57% 29.75 in 10.0 mi ENE 15.0 mph - N/A   Clear
9:12 PM 71.6 °F - 55.4 °F 57% 29.76 in 10.0 mi ENE 11.5 mph - N/A   Clear
9:32 PM 69.8 °F - 55.4 °F 60% 29.77 in 10.0 mi NE 10.4 mph - N/A   Clear
9:53 PM 69.8 °F - 55.4 °F 60% 29.78 in 10.0 mi NE 9.2 mph - N/A   Clear
10:12 PM 68.0 °F - 53.6 °F 60% 29.79 in 10.0 mi NE 9.2 mph - N/A   Clear
10:32 PM 66.2 °F - 55.4 °F 68% 29.79 in 10.0 mi NE 10.4 mph - N/A   Clear
10:53 PM 66.2 °F - 55.4 °F 68% 29.80 in 10.0 mi NE 9.2 mph - N/A   Clear
11:32 PM 64.4 °F - 53.6 °F 68% 29.81 in 10.0 mi NE 6.9 mph - N/A   Clear
11:53 PM 64.4 °F - 53.6 °F 68% 29.82 in 10.0 mi NE 6.9 mph - N/A   Clear